Vertical_Velocity
7 7 6 2 -1 -3 -4 -4 -0 2 4 6 7 7 6 4 5 6 7 6 4 4 5 7 9 9 7 4 0 -5 -8 -9 -7 -1 5 8 6 3 2 2 1 0 -0 -0 -1 -1 -2 -2 -2 -2 -2 -2 -2 -1 -1 -1 -0 0 -0 -0 -0 -0 0 0 1 1 0 0 0
4 5 4 2 1 1 1 3 7 11 14 14 14 13 13 13 15 16 16 11 6 4 5 8 9 8 5 2 -0 -3 -5 -6 -4 1 6 7 6 4 2 2 1 -0 -1 -1 -1 -2 -2 -2 -2 -2 -2 -1 -1 -1 -1 -0 -0 -0 -0 -1 -1 -0 0 1 1 1 1 0 0
4 5 4 3 2 2 3 5 8 11 13 15 15 15 15 15 15 17 17 16 9 6 5 6 7 6 4 2 0 -2 -3 -4 -1 4 7 6 5 3 2 1 -0 -1 -2 -2 -2 -2 -2 -1 -1 -1 -1 -1 -0 -1 -1 -0 -0 -0 -1 -1 -1 -0 0 1 1 1 0 -0 -1
8 7 6 5 3 2 3 4 6 8 10 12 13 14 15 15 13 13 13 13 11 9 6 5 6 5 4 2 -1 -3 -4 -3 2 6 8 6 4 2 0 -1 -2 -3 -3 -3 -2 -2 -1 -1 -0 -0 -0 0 -0 -0 -0 0 0 -0 -1 -1 -1 -0 0 1 1 0 0 -0 -0
8 8 7 7 6 5 4 4 4 4 6 8 10 11 12 12 10 9 8 8 9 8 7 7 6 5 3 2 -2 -5 -6 -3 4 6 6 4 2 0 -2 -3 -4 -4 -3 -2 -2 -1 -0 0 0 0 0 0 -0 -0 -0 0 0 -0 -1 -1 -1 -0 0 1 1 0 0 0 0
4 4 4 5 5 5 5 7 5 3 1 2 4 6 7 8 7 5 4 5 5 6 7 8 7 5 3 2 -4 -7 -7 -2 4 5 4 2 -0 -2 -4 -4 -4 -4 -3 -2 -1 -0 0 1 1 0 0 -0 -0 -1 -0 -0 -0 -1 -1 -1 -1 0 1 0 0 1 1 1 0
2 1 -0 -0 0 1 3 4 5 5 3 1 2 3 5 6 5 4 3 2 3 4 5 7 7 7 5 -0 -7 -9 -8 -4 2 4 5 3 0 -2 -4 -4 -4 -3 -2 -1 -0 0 1 1 1 1 0 -0 -0 -1 -1 -1 -1 -1 -1 -1 -1 -0 0 0 1 1 1 0 0
2 1 0 -1 -0 1 2 3 4 5 5 5 4 4 5 5 5 4 2 1 2 3 4 7 11 10 5 -3 -8 -9 -8 -5 -0 3 5 4 1 -2 -4 -4 -3 -2 -2 -1 0 1 1 1 1 1 0 0 -0 -1 -1 -0 -0 -1 -1 -1 -1 -1 -0 0 1 1 1 0 0
1 1 1 0 1 2 3 4 5 5 6 7 6 6 5 5 4 3 2 1 1 1 3 7 9 8 4 0 0 -2 -4 -5 -1 3 4 3 0 -2 -3 -3 -3 -2 -1 -0 0 1 1 1 1 1 0 0 -0 -0 0 0 0 -0 -1 -1 -1 -1 -0 0 0 1 1 1 1
-1 0 1 1 1 2 3 5 5 6 7 7 7 6 5 4 4 4 3 1 1 0 -0 0 -1 -2 1 7 9 7 3 -1 1 3 3 1 -1 -2 -2 -2 -2 -1 -1 -0 0 0 1 1 1 1 1 0 0 0 0 0 -0 -1 -1 -1 -1 -1 -0 -0 0 1 1 1 1
-3 -1 0 1 2 2 2 3 5 6 7 7 8 7 6 6 7 6 3 1 -1 -2 -3 -4 -4 -1 4 9 9 8 6 3 2 1 1 -0 -1 -1 -2 -1 -1 -1 -1 -0 -0 -0 0 0 1 1 1 0 0 0 0 0 -0 -1 -1 -1 -1 -0 -0 0 1 1 1 1 1
-4 -3 -2 0 1 1 1 2 4 4 5 6 8 9 9 9 9 6 3 -1 -2 -3 -2 1 7 12 14 11 7 5 4 3 0 -1 -1 -1 -1 -1 -1 -1 -1 -1 -1 -1 -1 -1 -0 0 0 0 0 0 0 0 1 1 -0 -1 -1 -1 -0 -0 0 1 2 2 2 1 1
-2 -3 -3 -2 -2 -1 -0 1 2 3 3 3 7 9 11 10 9 6 2 -1 -1 -1 2 9 16 18 18 14 7 3 -0 -1 -2 -3 -3 -1 -1 -1 -1 -2 -2 -2 -3 -3 -2 -1 -1 0 0 0 0 -0 0 1 1 1 1 0 0 0 0 1 1 2 2 2 2 1 1
0 -1 -3 -3 -3 -3 -2 -1 1 2 2 2 5 7 9 8 6 4 2 1 3 6 11 18 18 16 13 11 6 1 -2 -4 -4 -4 -3 -2 -1 -1 -2 -2 -3 -3 -3 -3 -2 -1 -1 -0 -0 -0 -0 0 1 1 1 1 1 1 1 1 1 2 2 2 2 2 1 1 1
4 3 1 -3 -3 -4 -3 -1 0 2 4 3 4 5 5 4 2 1 -0 0 4 10 19 26 20 13 7 5 3 0 -2 -5 -5 -4 -4 -2 -2 -2 -2 -3 -4 -4 -3 -3 -2 -1 -1 -0 -0 -0 -0 0 1 1 1 1 1 1 2 2 2 2 2 2 2 1 1 1 1
5 5 4 0 -2 -2 -2 -0 2 4 6 5 4 3 2 1 -0 -1 -3 -4 -3 7 20 31 23 12 4 1 0 -1 -2 -5 -5 -5 -4 -3 -2 -3 -3 -4 -4 -4 -3 -2 -1 -1 -0 0 -0 -0 -0 0 0 1 1 1 1 1 2 2 2 2 2 2 1 1 1 2 2
1 2 2 2 1 1 1 1 3 5 7 6 4 2 1 1 2 1 -1 -5 -6 3 16 29 25 14 3 -3 -2 -2 -2 -4 -5 -5 -5 -3 -3 -3 -3 -3 -3 -3 -2 -1 -1 -0 0 1 0 0 0 0 0 0 1 1 1 1 1 1 2 2 2 1 1 1 2 2 2
0 0 1 1 2 2 3 3 3 4 6 6 5 4 4 6 9 8 4 -1 -4 2 12 21 23 16 6 -4 -4 -3 -2 -3 -5 -5 -4 -3 -3 -2 -2 -2 -2 -2 -1 -0 0 0 1 1 1 0 0 0 0 0 1 1 0 0 0 1 1 2 2 2 1 1 2 2 2
2 1 1 1 2 3 3 3 2 2 3 4 5 7 8 10 12 12 9 4 1 3 7 13 18 16 8 -2 -4 -3 -2 -2 -4 -4 -3 -2 -1 -1 -1 -1 -0 -0 0 0 1 1 1 1 1 0 -0 0 0 1 0 0 -0 -1 -0 0 1 2 3 2 1 1 1 2 2
3 3 3 3 3 3 4 3 2 1 1 2 4 7 10 11 11 11 10 7 4 3 3 7 13 15 10 1 -2 -2 -2 -2 -2 -2 -2 -0 1 1 1 1 1 1 1 1 1 1 2 1 1 0 -0 0 0 0 0 -0 -1 -1 -1 -0 1 2 3 2 1 1 1 1 2
3 2 2 4 4 4 3 2 1 0 -0 0 2 5 8 10 8 6 5 3 3 1 1 4 12 15 13 4 0 -1 -1 -1 -1 -0 0 1 1 1 1 2 2 1 1 1 1 2 2 1 1 0 0 0 0 0 0 -0 -0 -0 0 0 1 2 2 2 1 1 0 0 1
6 3 1 2 3 4 3 2 1 0 -0 -0 0 2 4 7 6 3 -0 -2 -1 -1 0 3 13 17 15 7 1 -0 -0 1 1 1 1 2 2 2 2 2 1 1 1 1 1 1 1 1 1 1 0 0 0 0 0 0 0 1 1 1 1 1 1 1 1 0 -0 0 1
8 7 4 1 0 1 1 1 1 1 0 0 1 1 2 3 3 1 -1 -2 -2 -1 1 5 13 15 14 7 2 1 1 2 2 2 2 2 2 2 1 1 1 1 1 0 1 1 1 1 1 1 1 1 1 1 1 0 1 1 1 1 1 1 1 1 1 0 0 1 1
4 7 8 5 2 0 -1 -0 -0 -0 -0 -0 0 1 1 1 1 1 -0 -1 -1 0 3 7 12 13 10 6 3 2 2 2 2 2 2 2 2 2 1 1 1 1 1 1 1 1 1 1 1 1 1 1 1 1 1 1 1 1 1 1 1 1 1 1 1 1 1 1 2
0 3 6 8 6 3 1 0 -1 -1 -1 -1 -1 -1 -1 -0 0 0 -0 -1 -1 1 4 8 10 9 8 5 3 2 2 2 2 2 2 1 1 1 1 1 1 1 1 1 1 1 1 1 1 2 2 2 2 2 1 1 2 2 1 1 1 2 2 2 2 2 2 2 2
1 2 3 5 6 6 5 4 3 2 1 1 1 -0 -2 -2 -1 -1 -1 -1 -2 -1 1 4 6 6 5 3 3 3 3 3 3 3 2 1 1 0 0 1 1 1 1 1 1 1 1 1 2 2 3 3 2 2 2 2 2 2 2 2 2 2 2 2 2 2 2 2 2
0 1 2 3 4 4 4 4 4 4 4 3 4 4 3 1 0 -1 -1 -1 -2 -2 -1 0 2 3 3 3 2 3 3 3 4 3 2 1 0 1 2 1 1 2 2 2 2 2 1 2 2 2 3 2 2 2 2 3 3 2 2 2 2 2 2 3 3 3 3 2 2
-2 -1 0 1 2 2 2 2 2 2 3 3 3 3 3 3 2 1 1 0 -0 -0 -0 0 1 1 1 1 2 2 3 3 3 3 2 1 -1 -1 -2 -2 -0 1 2 2 2 1 2 2 2 2 2 2 2 2 2 2 2 2 2 2 2 3 3 3 3 3 3 3 2
-3 -2 -1 0 1 2 1 1 1 1 1 1 1 2 2 2 2 1 1 2 2 2 2 2 2 1 0 -1 -0 0 1 2 2 1 0 -1 -2 -4 -5 -4 -3 -2 -0 1 1 1 1 2 2 2 2 1 1 1 1 1 1 1 2 2 2 2 3 3 4 4 4 3 3
-3 -3 -2 -1 1 2 3 2 2 3 2 1 0 1 2 2 2 1 1 1 1 2 3 3 3 2 1 -2 -2 -1 -1 -0 0 -0 -1 -2 -3 -4 -5 -5 -4 -3 -2 -1 -0 0 1 1 1 1 0 -0 -0 -0 -0 -0 0 0 0 1 1 2 2 3 3 4 4 3 3
-2 -3 -3 -2 -1 1 2 3 3 5 5 6 3 1 1 2 2 2 1 1 1 1 2 4 4 2 0 -1 -1 -1 -1 -0 -0 -0 -1 -1 -1 -2 -3 -4 -4 -3 -2 -2 -1 -1 -0 -0 -0 -0 -0 -1 -1 -1 -0 -0 -0 -0 -0 0 1 1 1 1 1 2 3 3 3
-2 -3 -3 -2 -2 -1 1 2 4 5 7 9 9 6 2 1 1 1 2 1 1 1 2 3 3 2 1 -0 -1 -1 -1 -0 0 2 3 3 2 1 -2 -3 -3 -2 -1 -1 -2 -1 -1 -1 -0 0 0 -0 -0 -0 0 1 0 0 0 1 1 0 -1 -2 -1 1 2 3 3
-1 -2 -3 -2 -2 -1 -1 1 3 4 6 9 11 10 7 2 1 1 1 2 2 2 1 1 1 1 0 -0 -1 -1 -1 -1 0 1 3 3 3 2 1 -1 -1 -1 -0 -0 -0 -0 0 0 1 0 0 -0 -0 0 1 1 1 1 1 1 0 -1 -2 -3 -1 1 3 3 2
-1 -1 -2 -3 -2 -2 -2 -1 0 2 3 5 9 12 11 8 4 2 1 1 1 1 1 1 2 2 1 -1 -2 -2 -2 -2 -1 -1 -0 -0 1 1 1 1 1 1 1 0 1 2 2 2 2 2 1 0 -0 0 1 1 1 1 1 1 -1 -2 -2 -1 1 2 2 2 2
-1 -1 -2 -2 -3 -3 -3 -3 -2 -1 0 2 5 10 13 14 10 6 2 0 0 0 1 1 2 3 3 2 1 0 -0 -1 -1 -1 -2 -2 -2 -1 -0 0 1 2 2 1 2 3 3 4 4 3 2 1 0 0 1 1 2 2 1 0 -1 -1 -0 1 1 2 2 2 2
-1 -1 -1 -2 -3 -3 -4 -4 -3 -2 -2 -2 1 5 11 16 15 11 6 2 1 1 0 0 1 2 3 4 4 4 3 2 1 -0 -1 -1 -1 -1 -1 -0 1 2 3 3 3 3 4 5 5 4 3 1 0 1 1 2 3 2 1 0 -0 -0 1 1 2 2 2 2 2
-1 -1 -1 -1 -2 -3 -4 -5 -4 -4 -3 -4 -3 0 5 11 16 16 12 7 4 3 1 1 1 1 2 3 4 4 4 3 2 1 0 -0 -0 0 0 1 1 2 3 3 4 4 5 5 4 3 2 1 1 1 3 3 3 3 2 1 1 1 1 2 2 2 2 3 3
-1 -0 -0 -0 -1 -2 -3 -5 -6 -5 -4 -4 -6 -5 -1 5 11 15 17 15 11 7 5 4 3 1 1 2 4 4 3 3 2 1 0 -0 -0 0 1 1 2 3 3 3 4 4 4 4 4 3 2 2 2 3 3 4 4 3 2 2 2 2 2 2 3 3 3 3 3
-2 -1 -0 0 0 -0 -1 -3 -5 -6 -5 -4 -6 -7 -6 -2 3 9 14 18 17 15 11 9 6 3 1 2 5 6 5 3 2 1 1 0 -0 -0 -0 0 0 1 2 3 4 4 4 4 3 3 3 3 4 4 4 4 3 3 2 2 2 2 2 3 3 3 3 3 2
-2 -1 -1 -0 0 1 0 -1 -3 -5 -6 -5 -5 -6 -7 -7 -3 1 7 12 16 18 17 14 8 3 2 2 4 6 6 5 3 2 2 1 -0 -1 -1 -2 -1 -0 1 3 4 5 5 4 4 3 3 4 4 4 4 3 3 2 2 2 2 3 3 2 2 2 2 2 2
-3 -2 -1 -1 0 1 1 1 -1 -3 -5 -6 -6 -6 -6 -7 -7 -5 -1 4 9 14 17 17 12 7 4 3 3 3 4 5 5 5 4 2 -0 -1 -2 -2 0 2 3 4 5 6 7 5 4 3 3 3 4 4 4 3 3 2 2 2 2 3 2 1 1 1 2 2 1
Height
2953 2955 2956 2958 2959 2960 2961 2963 2964 2966 2967 2968 2970 2972 2974 2977 2979 2981 2982 2984 2986 2988 2990 2992 2994 2995 2996 2998 3000 3002 3003 3005 3006 3007 3009 3011 3013 3015 3016 3017 3019 3020 3021 3023 3024 3025 3026 3028 3029 3030 3031 3032 3033 3034 3036 3037 3039 3039 3040 3041 3042 3042 3043 3043 3044 3045 3045 3046 3047
2954 2955 2957 2958 2959 2961 2962 2964 2965 2967 2968 2970 2972 2974 2976 2978 2979 2981 2983 2984 2986 2988 2989 2991 2993 2994 2996 2998 2999 3001 3003 3004 3005 3007 3009 3010 3012 3013 3014 3016 3017 3019 3020 3021 3023 3024 3025 3027 3028 3029 3030 3031 3032 3033 3034 3036 3037 3038 3039 3039 3040 3041 3041 3042 3043 3044 3044 3045 3046
2954 2956 2957 2959 2960 2962 2963 2964 2965 2967 2968 2970 2972 2974 2976 2978 2980 2981 2983 2984 2986 2988 2989 2991 2992 2994 2996 2998 2999 3001 3003 3004 3005 3006 3008 3009 3011 3012 3014 3015 3016 3018 3019 3020 3021 3023 3024 3025 3026 3028 3029 3030 3031 3032 3033 3035 3036 3037 3037 3038 3039 3039 3040 3040 3041 3042 3043 3044 3044
2956 2957 2958 2960 2961 2962 2964 2965 2966 2967 2968 2969 2971 2974 2975 2977 2979 2981 2982 2984 2985 2987 2989 2990 2992 2994 2995 2997 2999 3001 3002 3003 3004 3006 3008 3009 3010 3012 3013 3014 3015 3017 3018 3019 3020 3021 3023 3024 3025 3026 3027 3029 3030 3031 3032 3033 3034 3035 3036 3037 3037 3038 3039 3039 3040 3041 3041 3042 3043
2957 2958 2959 2961 2962 2963 2964 2965 2966 2967 2968 2969 2970 2973 2974 2976 2978 2980 2982 2983 2984 2986 2988 2990 2992 2993 2995 2997 2999 3000 3001 3003 3004 3006 3007 3009 3010 3011 3012 3014 3014 3015 3017 3018 3019 3020 3021 3023 3024 3025 3026 3027 3029 3030 3031 3032 3033 3034 3034 3035 3036 3036 3037 3038 3039 3039 3040 3041 3042
2957 2958 2959 2961 2962 2963 2964 2965 2967 2968 2969 2969 2970 2972 2974 2976 2977 2979 2981 2982 2984 2985 2987 2989 2991 2993 2995 2997 2998 2999 3001 3002 3003 3005 3006 3008 3009 3010 3011 3013 3014 3014 3015 3016 3017 3019 3020 3021 3022 3024 3025 3026 3027 3029 3030 3031 3032 3033 3033 3034 3034 3035 3036 3037 3037 3038 3039 3040 3041
2957 2958 2959 2960 2961 2963 2964 2965 2966 2967 2969 2969 2970 2971 2973 2975 2977 2978 2980 2981 2983 2985 2987 2989 2991 2993 2994 2996 2997 2999 3000 3001 3003 3004 3005 3007 3008 3009 3010 3011 3012 3013 3014 3015 3016 3017 3019 3020 3021 3022 3024 3025 3026 3027 3029 3029 3030 3031 3032 3033 3034 3034 3035 3035 3036 3037 3038 3039 3039
2958 2959 2960 2961 2961 2962 2963 2964 2965 2967 2968 2969 2970 2971 2973 2974 2976 2977 2979 2980 2982 2984 2987 2989 2991 2992 2994 2995 2997 2998 2999 3000 3002 3003 3004 3005 3007 3008 3009 3010 3010 3011 3012 3013 3014 3016 3017 3019 3020 3021 3023 3024 3025 3026 3027 3029 3029 3030 3031 3032 3032 3033 3034 3034 3035 3036 3037 3037 3038
2959 2960 2960 2961 2962 2962 2963 2964 2965 2966 2967 2969 2970 2971 2972 2973 2974 2976 2978 2979 2981 2984 2986 2989 2990 2992 2994 2996 2997 2998 2999 3000 3001 3002 3003 3004 3005 3006 3007 3008 3009 3010 3011 3012 3013 3014 3016 3017 3019 3020 3021 3023 3024 3025 3026 3027 3028 3029 3030 3030 3031 3032 3032 3033 3034 3034 3035 3036 3037
2961 2961 2961 2961 2962 2962 2963 2964 2965 2966 2967 2968 2969 2970 2971 2973 2974 2975 2977 2979 2981 2984 2985 2988 2989 2991 2994 2995 2996 2997 2998 2999 3000 3002 3002 3003 3004 3005 3006 3007 3008 3009 3010 3011 3012 3014 3015 3016 3018 3019 3020 3022 3023 3024 3025 3026 3027 3028 3029 3029 3030 3030 3031 3032 3033 3033 3034 3035 3036
2962 2962 2962 2962 2963 2963 2964 2964 2965 2966 2967 2969 2970 2971 2972 2973 2974 2975 2977 2979 2981 2983 2985 2987 2989 2991 2992 2994 2994 2995 2997 2998 2999 3000 3001 3002 3003 3004 3005 3006 3007 3008 3009 3010 3011 3012 3014 3015 3017 3018 3019 3020 3022 3023 3024 3025 3025 3026 3027 3028 3029 3029 3030 3030 3031 3032 3033 3034 3034
2962 2963 2963 2963 2964 2964 2964 2965 2966 2967 2968 2969 2970 2971 2973 2974 2974 2976 2978 2980 2982 2984 2985 2987 2988 2990 2991 2992 2992 2993 2994 2996 2997 2999 3000 3001 3002 3003 3004 3005 3005 3006 3008 3009 3010 3011 3013 3014 3015 3017 3018 3019 3020 3021 3022 3023 3024 3025 3025 3026 3027 3028 3028 3029 3030 3031 3032 3033 3034
2963 2963 2964 2964 2964 2964 2965 2965 2966 2967 2968 2969 2970 2972 2973 2974 2975 2977 2979 2980 2982 2984 2985 2986 2988 2989 2989 2989 2990 2991 2992 2994 2996 2997 2999 3000 3001 3002 3003 3004 3004 3005 3006 3008 3009 3010 3012 3013 3014 3016 3017 3018 3019 3020 3021 3022 3023 3024 3024 3025 3026 3026 3027 3028 3029 3030 3031 3032 3033
2964 2964 2964 2965 2965 2965 2965 2965 2966 2967 2968 2969 2970 2972 2973 2974 2976 2978 2979 2981 2982 2983 2984 2986 2987 2987 2987 2987 2988 2989 2991 2993 2994 2996 2998 2999 3000 3001 3001 3002 3003 3004 3005 3007 3008 3009 3010 3012 3013 3014 3015 3017 3018 3019 3019 3020 3021 3022 3023 3024 3024 3025 3026 3027 3028 3029 3030 3031 3032
2965 2965 2965 2965 2966 2966 2966 2966 2966 2967 2968 2969 2971 2972 2974 2975 2976 2978 2979 2980 2981 2983 2984 2986 2986 2986 2985 2986 2987 2988 2990 2991 2993 2995 2997 2998 2999 3000 3001 3002 3003 3004 3005 3006 3007 3008 3009 3011 3012 3013 3014 3015 3016 3017 3018 3019 3020 3021 3022 3023 3023 3024 3025 3026 3027 3028 3029 3030 3031
2965 2966 2966 2966 2966 2966 2967 2967 2967 2967 2968 2969 2971 2973 2974 2976 2977 2978 2979 2980 2980 2982 2984 2986 2985 2985 2984 2985 2986 2988 2989 2990 2992 2994 2996 2997 2998 2999 3000 3001 3002 3003 3004 3005 3006 3007 3008 3009 3011 3012 3013 3014 3014 3015 3016 3017 3019 3019 3020 3021 3022 3023 3024 3025 3026 3027 3028 3029 3030
2966 2966 2967 2967 2967 2967 2967 2967 2968 2968 2969 2970 2971 2973 2974 2976 2978 2979 2979 2980 2980 2982 2984 2985 2985 2984 2984 2985 2986 2987 2989 2990 2991 2993 2995 2996 2998 2999 2999 3000 3001 3002 3003 3004 3005 3006 3007 3008 3009 3010 3011 3012 3013 3014 3015 3016 3017 3018 3019 3020 3021 3021 3022 3023 3024 3026 3027 3028 3029
2967 2967 2967 2967 2967 2967 2967 2967 2968 2969 2969 2970 2971 2973 2974 2976 2978 2979 2980 2980 2981 2982 2983 2984 2985 2984 2984 2985 2986 2987 2989 2990 2991 2993 2994 2996 2997 2998 2999 2999 3000 3001 3002 3003 3004 3005 3006 3007 3008 3009 3010 3011 3012 3013 3014 3014 3015 3016 3018 3018 3019 3020 3021 3022 3023 3024 3025 3026 3027
2968 2968 2968 2968 2968 2968 2968 2968 2968 2969 2970 2971 2972 2973 2975 2976 2978 2979 2979 2980 2981 2981 2982 2983 2984 2984 2984 2985 2986 2988 2989 2990 2991 2992 2994 2995 2996 2996 2997 2998 2999 3000 3001 3002 3003 3004 3005 3006 3007 3008 3009 3009 3010 3011 3012 3013 3014 3015 3016 3017 3017 3018 3019 3020 3022 3023 3024 3025 3026
2969 2969 2969 2969 2969 2969 2969 2969 2969 2969 2970 2972 2973 2974 2975 2976 2977 2978 2979 2979 2980 2980 2981 2982 2983 2984 2984 2984 2986 2987 2989 2990 2991 2992 2993 2994 2995 2995 2996 2997 2998 2999 3000 3001 3002 3003 3004 3004 3006 3006 3007 3008 3009 3010 3011 3012 3013 3014 3014 3015 3016 3016 3017 3019 3020 3022 3023 3024 3024
2970 2970 2970 2970 2970 2970 2970 2970 2970 2970 2971 2972 2973 2974 2975 2976 2977 2977 2978 2978 2979 2979 2980 2981 2983 2983 2984 2984 2985 2986 2988 2989 2990 2991 2992 2993 2994 2995 2996 2997 2997 2998 2999 3000 3001 3002 3003 3004 3004 3005 3006 3007 3008 3009 3010 3011 3012 3013 3013 3014 3014 3015 3016 3018 3019 3020 3022 3023 3024
2972 2971 2971 2971 2971 2972 2972 2972 2972 2972 2972 2972 2973 2974 2975 2976 2977 2977 2977 2978 2978 2979 2980 2981 2982 2983 2983 2984 2984 2986 2987 2989 2989 2990 2991 2993 2994 2994 2995 2996 2997 2998 2999 2999 3000 3001 3002 3003 3003 3004 3005 3006 3007 3008 3009 3010 3010 3011 3012 3013 3013 3014 3015 3017 3018 3019 3021 3022 3023
2973 2973 2972 2972 2972 2972 2972 2973 2973 2973 2973 2974 2974 2974 2975 2976 2977 2977 2977 2978 2978 2979 2980 2981 2982 2982 2983 2983 2984 2985 2986 2988 2989 2989 2991 2992 2993 2994 2995 2996 2996 2997 2998 2998 2999 3000 3000 3001 3002 3003 3004 3004 3005 3006 3008 3008 3009 3010 3011 3011 3012 3013 3014 3016 3017 3019 3020 3021 3022
2974 2974 2974 2973 2973 2973 2973 2973 2973 2974 2974 2974 2974 2975 2975 2975 2976 2976 2977 2977 2978 2979 2980 2981 2981 2982 2982 2983 2984 2984 2986 2987 2988 2989 2990 2991 2993 2994 2994 2995 2996 2996 2997 2997 2998 2999 2999 3000 3001 3001 3002 3003 3004 3005 3006 3007 3008 3008 3009 3010 3011 3012 3014 3015 3017 3018 3019 3020 3021
2975 2975 2974 2974 2974 2974 2974 2974 2973 2974 2974 2974 2974 2974 2975 2975 2975 2976 2976 2977 2977 2978 2979 2980 2980 2981 2981 2982 2983 2984 2985 2986 2987 2989 2990 2991 2992 2993 2994 2994 2994 2995 2996 2996 2997 2997 2998 2999 2999 3000 3001 3002 3003 3004 3005 3005 3006 3007 3008 3009 3010 3011 3013 3014 3016 3017 3018 3019 3020
2975 2975 2975 2975 2975 2974 2974 2974 2974 2974 2974 2974 2974 2974 2974 2974 2974 2975 2975 2976 2976 2977 2978 2979 2979 2980 2980 2981 2982 2983 2984 2985 2987 2988 2989 2990 2991 2992 2992 2993 2994 2994 2994 2995 2995 2996 2997 2997 2998 2999 3000 3001 3002 3003 3004 3004 3005 3006 3007 3008 3009 3010 3012 3013 3015 3016 3017 3018 3019
2976 2975 2975 2975 2975 2975 2974 2974 2974 2974 2974 2973 2973 2973 2973 2973 2973 2974 2974 2975 2975 2976 2977 2977 2978 2979 2979 2980 2981 2983 2984 2985 2986 2987 2988 2989 2989 2990 2991 2992 2992 2993 2993 2994 2994 2995 2995 2996 2997 2998 2999 3000 3001 3001 3002 3003 3004 3005 3006 3007 3008 3010 3011 3013 3014 3015 3016 3017 3018
2976 2976 2975 2975 2975 2975 2974 2974 2974 2974 2974 2973 2973 2973 2973 2973 2973 2973 2973 2974 2974 2975 2975 2976 2977 2977 2978 2979 2981 2982 2983 2984 2985 2986 2987 2987 2988 2989 2989 2990 2991 2991 2992 2993 2993 2994 2994 2995 2996 2997 2998 2999 2999 3000 3001 3002 3003 3004 3005 3006 3008 3009 3010 3012 3013 3014 3015 3016 3017
2976 2976 2975 2975 2975 2975 2974 2974 2974 2974 2973 2973 2972 2972 2972 2972 2972 2972 2972 2973 2973 2974 2974 2974 2975 2976 2977 2979 2980 2981 2982 2983 2984 2985 2985 2986 2987 2988 2988 2989 2990 2991 2991 2992 2993 2993 2994 2994 2995 2996 2997 2998 2999 2999 3000 3001 3002 3003 3005 3006 3007 3009 3010 3011 3012 3013 3014 3015 3016
2976 2976 2975 2975 2974 2974 2974 2974 2974 2974 2973 2973 2972 2972 2971 2971 2971 2971 2971 2972 2972 2972 2973 2974 2974 2975 2976 2978 2979 2980 2981 2982 2983 2984 2985 2986 2987 2987 2988 2989 2989 2990 2991 2992 2992 2993 2993 2994 2994 2995 2996 2997 2998 2998 2999 3000 3001 3003 3004 3006 3007 3008 3009 3010 3011 3012 3014 3014 3015
2975 2975 2975 2974 2974 2974 2974 2973 2973 2973 2974 2973 2973 2972 2971 2971 2971 2970 2971 2971 2971 2972 2972 2973 2974 2974 2975 2977 2978 2979 2981 2982 2983 2984 2985 2986 2986 2987 2988 2989 2989 2990 2990 2991 2992 2992 2993 2993 2993 2994 2994 2995 2996 2997 2998 2999 3001 3002 3004 3005 3006 3008 3009 3010 3011 3012 3013 3014 3014
2974 2974 2974 2974 2974 2973 2973 2973 2973 2973 2973 2973 2973 2972 2971 2971 2970 2970 2970 2970 2971 2971 2972 2972 2973 2974 2975 2976 2978 2979 2980 2981 2982 2983 2984 2985 2986 2987 2987 2988 2989 2989 2990 2990 2991 2991 2992 2992 2993 2993 2994 2994 2995 2996 2997 2998 3000 3001 3003 3004 3005 3007 3008 3009 3010 3011 3011 3012 3013
2972 2973 2973 2973 2973 2972 2972 2972 2972 2972 2972 2972 2972 2972 2971 2971 2970 2970 2970 2970 2971 2971 2971 2972 2973 2974 2975 2976 2977 2978 2979 2980 2981 2982 2983 2984 2984 2985 2986 2987 2988 2988 2989 2989 2990 2990 2991 2991 2992 2992 2993 2994 2994 2995 2996 2997 2999 3000 3001 3003 3004 3005 3007 3008 3009 3009 3010 3011 3012
2970 2971 2971 2971 2971 2971 2971 2971 2971 2971 2971 2971 2971 2971 2971 2970 2970 2970 2970 2970 2970 2971 2971 2972 2973 2974 2975 2976 2977 2977 2978 2979 2980 2981 2982 2982 2983 2984 2984 2985 2986 2987 2987 2988 2988 2989 2989 2990 2990 2991 2992 2993 2993 2994 2995 2996 2997 2999 3000 3001 3003 3004 3006 3007 3008 3008 3009 3009 3010
2969 2969 2969 2969 2970 2970 2970 2969 2969 2969 2969 2969 2969 2969 2970 2969 2969 2969 2969 2969 2970 2970 2970 2971 2972 2973 2974 2975 2976 2977 2977 2978 2979 2979 2980 2981 2981 2982 2983 2984 2984 2985 2986 2986 2987 2988 2988 2989 2989 2990 2991 2992 2993 2993 2994 2995 2996 2998 2999 3000 3002 3003 3004 3005 3006 3007 3008 3009 3009
2968 2968 2967 2967 2968 2968 2968 2968 2968 2968 2968 2968 2968 2968 2968 2969 2969 2968 2968 2968 2969 2969 2970 2970 2971 2972 2973 2974 2975 2976 2977 2977 2978 2978 2979 2979 2980 2981 2981 2982 2983 2984 2984 2985 2986 2986 2987 2987 2988 2989 2989 2991 2992 2993 2994 2994 2995 2997 2998 2999 3001 3002 3003 3004 3005 3006 3007 3008 3008
2968 2967 2966 2966 2966 2966 2966 2967 2967 2966 2966 2966 2966 2967 2967 2967 2967 2968 2968 2967 2968 2968 2969 2969 2970 2970 2971 2972 2973 2974 2975 2976 2976 2977 2977 2978 2979 2979 2980 2981 2981 2982 2983 2984 2984 2985 2986 2986 2987 2988 2989 2990 2991 2992 2993 2994 2994 2996 2997 2999 3000 3001 3002 3003 3004 3005 3005 3006 3007
2967 2966 2965 2965 2964 2964 2964 2964 2965 2965 2965 2964 2964 2965 2965 2965 2965 2966 2967 2967 2967 2967 2967 2968 2968 2969 2969 2970 2971 2972 2973 2974 2975 2975 2976 2976 2977 2978 2978 2979 2980 2980 2981 2982 2983 2984 2984 2985 2986 2987 2988 2989 2990 2991 2992 2993 2994 2995 2996 2997 2999 3000 3001 3002 3003 3004 3004 3004 3005
2966 2965 2965 2964 2963 2963 2962 2962 2963 2963 2963 2963 2963 2963 2963 2964 2964 2964 2965 2966 2966 2966 2966 2966 2966 2967 2967 2968 2969 2969 2971 2972 2973 2974 2974 2975 2975 2976 2976 2977 2978 2979 2980 2981 2982 2983 2984 2984 2985 2986 2987 2988 2989 2990 2991 2992 2993 2994 2995 2996 2997 2999 2999 3000 3001 3002 3002 3003 3004
2965 2964 2964 2963 2962 2962 2961 2961 2961 2961 2961 2961 2961 2961 2962 2962 2962 2962 2962 2963 2964 2964 2965 2965 2965 2965 2965 2966 2967 2967 2968 2969 2970 2971 2972 2973 2974 2974 2975 2976 2977 2978 2979 2980 2981 2982 2983 2984 2984 2985 2986 2987 2988 2989 2990 2991 2992 2993 2994 2995 2996 2997 2998 2999 2999 3000 3001 3001 3002
2964 2964 2963 2962 2962 2961 2960 2959 2959 2959 2959 2959 2960 2960 2960 2960 2961 2961 2961 2961 2961 2962 2963 2963 2963 2963 2963 2964 2964 2965 2966 2967 2968 2969 2970 2971 2972 2973 2974 2974 2976 2977 2977 2978 2979 2980 2981 2982 2983 2984 2985 2986 2987 2988 2989 2990 2991 2992 2993 2994 2995 2995 2996 2997 2998 2999 2999 3000 3000